Weather in Dyurskiy

Russia / Saratov Oblast     50°39′53″N   48°34′09″E
temp.,
°C
wind,
m/s
gust,
m/s
humid.,
%
clouds,
%
prec.,
mm/h
press.,
hPa
HPBL,
m
25 july, sun
sun2501:00+18nnw35640 0.0 101373
04:00+17n47625 0.0 1015136
07:00+18n57601 0.0 1016252
10:00+23n55425 0.0 10181162
13:00+26n45328 0.0 10182521
16:00+27nnw552734 0.0 10182828
19:00+26n543022 0.0 10191843
22:00+20n511425 0.0 1021239
26 july, mon
mon2601:00+18nne47465 0.0 1022121
04:00+16ne45461 0.0 102274
07:00+18ene34411 0.0 1023162
10:00+23ene22295 0.0 10231273
13:00+26nne232518 0.0 10232780
16:00+27n442316 0.0 10212993
19:00+26n652623 0.0 10211564
22:00+20nne48345 0.0 1022135
27 july, tue
tue2701:00+18nne464214 0.0 102297
04:00+16ne34484 0.0 102251
07:00+19n23450 0.0 1022123
10:00+24n45301 0.0 10221858
13:00+27n452636 0.0 10202841
16:00+28nnw452430 0.0 10182974
19:00+26n662858 0.0 10182482
22:00+21n34438 0.0 101952
28 july, wed
wed2801:00+19n45483 0.0 101866
04:00+17nnw34574 0.0 101864
07:00+20n35550 0.0 1018171
10:00+25nnw35390 0.0 10181291
13:00+29nnw452799 0.0 10163070
16:00+28nw563030 0.0 10152384
19:00+27n6736100 0.0 10151647
22:00+22nnw33471 0.0 101632
29 july, thu
thu2901:00+20nne225297 0.0 101511
04:00+20wsw125039 0.0 101411
07:00+23wsw2245100 0.0 101498
10:00+28sw4533100 0.0 10141043
13:00+31wsw4525100 0.0 10123212
16:00+32sw4722100 0.0 10103496
19:00+26wnw71037100 0.0 10121006
22:00+23sw3545100 0.0 101186